Showing default

STRIX-1, 53815

Orbit data source: Space-Track

STRIX-1, 53815 is a payload satellite owned by Synspective (JP) in SSO that was launched on Thu, 15 Sep 2022 UTC via an ELECTRON launch vehicle from the Rocket Lab Launch Complex (RLLC). Payload-class satellites include a variety of spacecraft equipped with specific instruments for various scientific and technological missions. These include communications satellites like Starlink; space stations such as the ISS; scientific satellites like the Hubble; Earth observation satellites from companies like Planet Labs, Umbra, and HawkEye 360; GPS; miniature CubeSats for education and research; and military/defense satellites.

Loading next visibility...
Identifier
53815, 2022-113A
Orbit
SSO
Country
Flag of JPJP / JPN
Related business
Manufacturer
Synspective
Mission
Operational Commercial Radar Imaging
Bus & Motor
STRIX, Unknown motor
Mass
150 kg wet, 150 kg dry
Launch date (UTC)
2022-09-15 (4 years ago)
Launch vehicle
ELECTRON
Launch site
Rocket Lab Launch Complex (RLLC)
Object type
Payload
Rocket body
Debris
Shape & HBR
Box + 2 Pan, 1.0 m
Radar Cross Section
1.052 m², Medium (>0.1 m² and < 1m²)

Expand to show TLE details & history
Last TLE update: 1 day ago

TLE from 1 day ago
0 STRIX-1
1 53815U 22113A   26172.47312523  .00019297  00000-0  48577-3 0  9998
2 53815  97.4491 234.5741 0003915 196.6630 163.4488 15.39956646208102
Epoch: 2026-06-21T11:21Z
TLE epoch observation values (Epoch: 2026-06-21T11:21:18.019Z)
Latitude
-0.00003°
Longitude
154.57613°
Altitude
451.915 km
Speed
7.64 km/s
True Right ascension
15h 38m 17s
True Declination
0° 00' 00"
Sunlit
Object was in full shadow at epoch
Visualization orbit readout
Latitude
Unknown
Longitude
Unknown
Altitude
Unknown
Speed
Unknown
Apparent Right ascension
Unknown
Apparent Declination
Unknown
Sunlit
N/A
Visualization observer readout
Local Sidereal Time
00:31:43
Azimuth
Unknown
Elevation
Unknown
Doppler factor
Unknown
Orbital elements
Apogee altitude
445.849 km
Perigee altitude
440.508 km
Semi-major axis
6,821.316 km
Eccentricity
0.00039
Inclination
97.4491°
RAAN
234.5741°
Arg. of periapsis
196.663°
True anomaly
163.46157°
Mean anomaly
163.4488°
Eccentric anomaly
163.45519°
Mean motion
3.85249 °/min
Orbital period
93.45 mins
BSTAR
0.00048577
Loading maneuver chart data...
Computing Atmospheric mass density...
Loading historical data...
Loading historical data...
Loading historical data...
Loading historical data...
Loading historical data...
Loading historical data...
Loading historical data...
Other satellites on launch #113 in the year 2022 (2022-09-15 UTC)

Documentation

Showing up to 5 results
|